Sarasota, FL

6:44 PM EDT on May 27, 2017 (GMT -0400)
Sarasota-bradenton

Weather History for KSRQ - March, 2014

Change the Weather History Date:

Friday, March 28, 2014

  Actual Average Record
Temperature  
Mean Temperature 72 °F 68 °F  
Max Temperature 80 °F 78 °F 89 °F (1989)
Min Temperature 63 °F 59 °F 40 °F (1969)
Degree Days  
Heating Degree Days 0 1  
Month to date heating degree days 35 47  
Since 1 July heating degree days 343 465  
Cooling Degree Days 7 4  
Month to date cooling degree days 78 90  
Year to date cooling degree days 194 194  
Growing Degree Days 21 (Base 50)    
Moisture  
Dew Point 62 °F    
Average Humidity 72    
Maximum Humidity 90    
Minimum Humidity 58    
Precipitation  
Precipitation T in 0.11 in 3.50 in (2011)
Month to date precipitation 6.01 3.47  
Year to date precipitation 9.63 8.66  
Sea Level Pressure  
Sea Level Pressure 30.08 in    
Wind  
Wind Speed 12 mph (SE)    
Max Wind Speed 21 mph    
Max Gust Speed 27 mph    
Visibility 10 miles    
Events      
T = Trace of Precipitation, MM = Missing Value Source: NWS Daily Summary

Daily Weather History Graph

Daily Weather History Graph

Search for Another Location

Airport or City:

Trip Planner

Search our weather history database for the weather conditions in past years. The results will help you decide how hot, cold, wet, or windy it might be!

Date:

Astronomy

Mar. 28, 2014 Rise Set
Actual Time 7:25 AM EDT 7:45 PM EDT
Civil Twilight 7:01 AM EDT 8:09 PM EDT
Nautical Twilight 6:34 AM EDT 8:36 PM EDT
Astronomical Twilight 6:06 AM EDT 9:04 PM EDT
Moon 5:43 AM EDT (3/28) 5:50 PM EDT (3/28)
Length of Visible Light 13h 07m
Length of Day
12h 20m
Waning Crescent, 6% of the Moon is Illuminated
Mar 28
Waning Crescent
Mar 30
New
Apr 7
First Quarter
Apr 15
Full
Apr 22
Last Quarter

Hourly Weather History & Observations

Time (EDT) Temp. Dew Point Humidity Pressure Visibility Wind Dir Wind Speed Gust Speed Precip Events Conditions
12:53 AM 64.0 °F 57.9 °F 80% 30.17 in 10.0 mi East 8.1 mph - N/A   Partly Cloudy
1:53 AM 64.0 °F 57.9 °F 80% 30.17 in 10.0 mi ENE 5.8 mph - N/A   Clear
2:53 AM 63.0 °F 57.9 °F 84% 30.14 in 10.0 mi East 6.9 mph - N/A   Clear
3:53 AM 63.0 °F 59.0 °F 87% 30.10 in 10.0 mi ESE 9.2 mph - N/A   Clear
4:53 AM 64.0 °F 59.0 °F 84% 30.09 in 10.0 mi East 8.1 mph - N/A   Partly Cloudy
5:53 AM 66.0 °F 60.1 °F 81% 30.09 in 10.0 mi ESE 15.0 mph - N/A   Clear
6:53 AM 66.0 °F 60.1 °F 81% 30.09 in 10.0 mi East 12.7 mph - N/A   Overcast
7:53 AM 66.0 °F 60.1 °F 81% 30.10 in 10.0 mi ESE 15.0 mph - N/A   Mostly Cloudy
8:53 AM 70.0 °F 61.0 °F 73% 30.10 in 10.0 mi SE 17.3 mph - N/A   Clear
9:53 AM 71.1 °F 62.1 °F 73% 30.09 in 10.0 mi ESE 16.1 mph - N/A   Clear
10:53 AM 73.0 °F 62.1 °F 68% 30.10 in 10.0 mi SE 18.4 mph - N/A   Clear
11:53 AM 75.9 °F 63.0 °F 64% 30.12 in 10.0 mi SE 16.1 mph 23.0 mph N/A   Clear
12:53 PM 79.0 °F 63.0 °F 58% 30.11 in 10.0 mi ESE 12.7 mph - N/A   Mostly Cloudy
1:53 PM 78.1 °F 63.0 °F 60% 30.09 in 10.0 mi SSE 12.7 mph - N/A   Mostly Cloudy
2:53 PM 78.1 °F 63.0 °F 60% 30.06 in 10.0 mi SE 12.7 mph - N/A   Scattered Clouds
3:53 PM 77.0 °F 64.0 °F 64% 30.03 in 10.0 mi SE 10.4 mph - N/A   Overcast
4:53 PM 78.1 °F 64.9 °F 64% 30.01 in 10.0 mi SSE 10.4 mph - N/A   Scattered Clouds
5:53 PM 77.0 °F 64.9 °F 66% 30.02 in 10.0 mi SSW 9.2 mph - N/A   Overcast
6:53 PM 75.9 °F 64.9 °F 69% 30.02 in 10.0 mi South 11.5 mph - N/A   Scattered Clouds
7:53 PM 75.9 °F 64.9 °F 69% 30.03 in 10.0 mi SSE 9.2 mph - N/A   Mostly Cloudy
8:53 PM 75.0 °F 64.9 °F 71% 30.03 in 10.0 mi SSE 9.2 mph - N/A   Clear
9:53 PM 73.9 °F 64.9 °F 73% 30.03 in 10.0 mi South 11.5 mph - N/A   Clear
10:53 PM 73.9 °F 64.9 °F 73% 30.02 in 10.0 mi SSE 11.5 mph - 0.00 in   Partly Cloudy
11:53 PM 73.9 °F 66.0 °F 76% 30.03 in 10.0 mi SE 15.0 mph - N/A   Scattered Clouds